This is the latest recevied weather packets stored in our database for station/object N2XP-3. If no packets are shown the sender has not sent any weather packets the latest 10 day(s).
| Time | Temp. | Humidity | Pressure | Rain* | Wind** | Luminosity | Snow |
|---|---|---|---|---|---|---|---|
| 1777568043 | 14.44° C | 77% | 1004.4 hPa | 0 mm | 0.45 m/s, 89° | - | - |
| 1777567739 | 13.89° C | 77% | 1004.4 hPa | 0 mm | 0.89 m/s, 345° | - | - |
| 1777567534 | 14.44° C | 76% | 1004.4 hPa | 0 mm | 0.45 m/s, 160° | - | - |
| 1777567435 | 14.44° C | 76% | 1004.4 hPa | 0 mm | 0.45 m/s, 160° | - | - |
| 1777567134 | 15° C | 76% | 1004.5 hPa | 0 mm | 2.24 m/s, 52° | - | - |
| 1777566822 | 15° C | 75% | 1004.5 hPa | 0 mm | 0.89 m/s, 77° | - | - |
| 1777566642 | 15.56° C | 76% | 1004.7 hPa | 0 mm | 0.45 m/s, 62° | - | - |
| 1777566522 | 15.56° C | 76% | 1004.7 hPa | 0 mm | 0.45 m/s, 62° | - | - |
| 1777566220 | 15.56° C | 76% | 1004.8 hPa | 0 mm | 0 m/s | - | - |
| 1777565964 | 15.56° C | 75% | 1004.8 hPa | 0 mm | 1.34 m/s, 311° | - | - |
| 1777565911 | 15.56° C | 75% | 1004.8 hPa | 0 mm | 1.34 m/s, 311° | - | - |
| 1777565729 | 15.56° C | 76% | 1004.9 hPa | 0 mm | 0.89 m/s, 311° | - | - |
| 1777565612 | 15.56° C | 76% | 1004.9 hPa | 0 mm | 0.89 m/s, 311° | - | - |
| 1777565487 | 15.56° C | 78% | 1005 hPa | 0 mm | 1.34 m/s, 48° | - | - |
| 1777565382 | 15.56° C | 78% | 1005 hPa | 0 mm | 1.34 m/s, 48° | - | - |
| 1777565310 | 15.56° C | 78% | 1005 hPa | 0 mm | 1.34 m/s, 48° | - | - |
| 1777565076 | 15° C | 80% | 1004.9 hPa | 0 mm | 0.45 m/s, 77° | - | - |
| 1777565002 | 15° C | 80% | 1004.9 hPa | 0 mm | 0.45 m/s, 77° | - | - |
| 1777564792 | 15° C | 81% | 1005 hPa | 0 mm | 1.79 m/s, 94° | - | - |
| 1777564703 | 15° C | 81% | 1005 hPa | 0 mm | 1.79 m/s, 94° | - | - |
| 1777564529 | 15° C | 81% | 1005.1 hPa | 0 mm | 1.79 m/s, 222° | - | - |
| 1777564438 | 15° C | 81% | 1005.1 hPa | 0 mm | 1.79 m/s, 222° | - | - |
| 1777564398 | 15° C | 81% | 1005.1 hPa | 0 mm | 1.79 m/s, 222° | - | - |
| 1777564171 | 15° C | 83% | 1005.1 hPa | 0 mm | 0 m/s | - | - |
| 1777564093 | 15° C | 83% | 1005.1 hPa | 0 mm | 0 m/s | - | - |
* Rain latest hour (hover to see other rain measurements)
** Current wind speed in m/s (hover to see current wind gust speed)